SCP
0 0 0 0 0 -0 -0 0 0 1 0 0 0 0 0 0 0 0 0 0 -0 0 0 0 0 0 0 0 0 0 0 0 0 0 0 0 0 0 0 0 0 0 0
0 0 -0 -0 -0 -0 -0 0 0 0 0 0 0 0 0 0 0 0 0 0 0 0 0 0 0 0 0 0 0 0 0 0 0 0 0 0 0 0 0 0 0 0 0
-0 0 -0 -0 -0 -0 -0 -0 0 0 0 0 0 0 0 0 0 0 0 0 0 0 0 0 0 0 0 0 0 0 0 0 0 0 0 0 0 0 0 0 0 0 0
-0 -0 -0 -0 0 0 0 0 1 1 1 0 0 0 0 0 0 0 0 0 -0 -0 -0 -0 -0 0 0 0 0 0 0 0 0 0 0 0 0 0 0 0 0 0 0
0 0 0 0 0 0 0 0 1 1 1 0 0 0 0 0 0 0 0 0 -0 -0 -0 -0 -0 -0 0 0 0 0 0 1 1 0 0 0 0 0 0 0 0 0 0
0 0 0 0 0 0 1 1 1 1 1 1 0 0 0 0 0 0 0 0 0 0 0 0 0 -0 0 0 0 0 0 0 0 0 0 0 0 0 0 0 0 0 0
0 1 1 1 1 1 1 1 1 1 1 0 0 0 0 0 0 0 0 0 0 0 0 0 0 0 0 0 0 0 0 0 0 0 0 0 0 0 1 0 0 0 0
1 1 1 1 1 1 1 1 1 1 1 1 1 0 0 0 0 0 0 0 0 0 0 0 0 0 -0 0 0 0 0 0 0 0 0 0 0 0 1 1 1 0 0
0 0 0 0 0 0 0 0 1 1 0 0 0 0 0 0 0 0 0 0 0 0 0 0 0 0 0 0 0 0 0 0 0 0 0 0 -0 0 0 1 1 1 1
0 0 0 0 0 0 0 0 0 0 0 0 0 0 0 0 0 0 0 0 0 0 0 0 0 0 0 0 0 0 0 0 0 0 0 0 -0 -0 0 0 0 1 1
0 0 0 0 0 0 0 0 0 0 0 0 0 0 0 0 0 0 0 0 0 0 0 0 0 0 0 0 0 0 0 0 0 0 0 -0 0 0 0 0 1 1 2
0 0 0 0 0 0 0 0 0 0 0 0 0 0 0 0 0 0 0 0 0 0 0 0 0 0 0 0 0 0 0 0 0 0 0 0 0 0 0 0 0 1 1
0 0 0 0 0 0 0 0 0 0 0 0 0 0 0 0 0 0 0 0 0 0 0 0 0 0 0 0 0 0 0 0 0 0 0 0 0 0 0 0 0 0 1
0 0 0 0 0 0 0 0 0 0 0 0 0 0 0 0 0 0 0 0 0 0 0 0 0 0 0 0 0 0 0 0 0 0 0 0 0 0 0 0 0 0 1
0 0 0 0 0 0 0 0 0 0 0 0 0 0 0 0 0 0 0 0 0 0 0 0 0 0 0 0 0 0 0 0 0 1 1 1 1 1 0 0 0 0 0
0 0 0 0 0 0 0 0 0 0 0 0 0 0 0 0 0 0 0 0 0 0 0 0 0 0 0 0 0 1 0 0 0 1 1 1 1 1 1 0 0 0 0
0 0 0 0 0 0 0 0 0 0 0 0 0 0 0 0 0 0 0 0 0 0 0 0 0 0 0 0 0 1 1 1 1 1 1 2 2 1 1 0 0 0 0
0 0 0 0 0 0 0 0 0 0 0 0 0 0 0 0 0 0 0 0 0 0 0 0 0 0 0 0 0 0 1 2 2 2 2 2 3 2 1 1 1 0 0
0 0 0 0 0 0 0 0 0 0 0 0 0 0 0 0 0 0 0 0 0 0 0 0 0 0 0 0 0 1 1 1 1 1 2 2 2 2 1 1 1 0 0
0 0 0 0 0 0 0 0 0 0 0 0 0 0 0 0 0 0 0 0 0 0 0 0 0 0 0 0 0 0 1 1 1 1 1 1 2 2 2 1 1 0 0
0 0 0 0 0 0 0 0 0 0 0 0 0 0 0 0 0 0 0 0 0 0 0 0 0 0 0 0 0 0 0 0 1 1 1 1 1 1 1 1 1 1 1
0 0 0 0 0 0 0 0 0 0 0 0 0 0 0 0 0 0 0 0 0 0 0 0 0 0 0 0 0 0 0 0 1 1 1 1 1 1 1 0 0 0 1
0 0 0 0 0 0 0 0 0 0 0 0 0 0 0 0 0 0 0 0 0 0 0 0 0 0 0 0 0 0 0 0 0 0 1 1 1 1 1 1 1 0 0
0 0 0 0 0 0 0 0 0 0 0 0 0 0 0 0 0 0 0 0 0 0 0 0 0 0 0 0 0 0 0 0 0 0 0 0 1 0 1 1 1 0 0
0 0 0 0 0 0 0 0 0 0 0 0 0 0 0 0 0 0 0 0 0 0 0 0 0 0 0 0 0 0 0 0 0 0 0 0 0 0 0 0 0 0 0
-0 0 0 0 0 0 0 0 0 0 0 0 0 0 0 0 0 0 -0 0 0 0 0 0 0 0 0 0 0 0 0 0 0 0 0 0 0 0 0 0 0 0 0
Wind_Speed_500mb
51 64 47 55 52 59 54 40 43 42 44 51 55 62 64 65 53 55 51 36 41 34 35 37 41 43 41 42 41 41 46 44 52 48 35 24 23 23 19 20 22 20 14
27 32 57 71 51 61 48 40 36 29 34 35 32 37 36 39 30 43 30 11 11 21 28 31 41 40 43 45 46 47 47 45 48 54 41 30 23 23 23 22 21 22 19
12 23 22 32 46 41 31 31 26 31 41 43 34 31 29 27 27 30 26 21 28 17 21 33 37 33 41 40 44 44 46 44 42 47 52 38 28 25 25 22 21 18 18
23 20 28 35 35 26 24 30 33 35 44 46 38 29 33 32 32 30 30 30 38 42 45 37 46 52 48 48 48 45 43 41 39 39 44 49 35 29 26 21 21 15 16
31 36 41 36 33 35 30 30 33 34 40 41 36 35 34 37 34 37 38 38 42 48 50 52 54 53 46 45 48 45 40 39 39 45 40 50 44 33 28 21 24 21 18
10 13 11 15 17 22 27 28 28 32 34 34 33 33 28 25 29 39 43 47 46 45 41 36 31 39 45 45 40 34 30 35 45 48 48 52 50 35 25 25 25 27 22
12 10 8 11 14 18 22 27 28 32 36 34 35 34 35 32 32 37 40 44 44 35 24 25 38 38 32 36 31 27 30 29 44 42 44 53 55 43 31 30 31 30 23
13 12 12 14 17 20 22 23 24 26 26 25 30 31 37 38 35 33 41 43 42 32 27 25 34 22 14 12 17 22 28 30 33 35 42 50 53 43 38 34 30 31 32
15 18 19 20 23 26 28 28 28 26 28 30 31 33 36 35 33 37 44 41 38 38 35 37 36 24 12 18 27 26 28 35 35 32 38 39 45 36 36 38 37 38 43
16 14 17 20 24 28 32 34 37 39 40 41 42 43 45 46 42 41 39 42 46 43 46 46 41 34 30 32 37 32 24 16 24 22 17 47 48 39 37 41 40 43 41
8 16 26 34 40 44 44 44 47 49 53 55 58 60 59 59 60 55 47 48 54 57 61 61 51 39 34 32 32 35 41 40 36 34 53 49 40 36 37 34 39 41 45
25 32 36 38 40 44 50 53 55 58 62 64 65 69 70 68 67 66 62 60 58 60 66 65 63 57 45 39 39 38 33 37 40 34 29 28 24 24 34 42 39 43 36
29 31 35 42 49 51 48 49 51 53 57 60 62 66 68 67 66 64 63 61 61 60 65 67 65 63 63 55 47 43 45 44 43 41 31 27 25 23 22 24 37 48 49
35 41 47 53 56 57 54 54 56 57 58 59 60 61 60 58 56 55 60 59 56 54 55 58 63 64 64 64 61 55 53 55 54 50 45 29 25 29 35 34 33 29 37
45 52 57 58 60 60 59 60 60 62 60 63 67 68 70 71 68 65 62 62 61 62 59 56 56 56 58 61 60 62 61 59 64 61 54 39 28 27 30 37 38 33 32
54 60 62 62 60 59 56 54 48 49 53 59 65 67 73 78 79 79 78 72 66 63 65 70 66 61 65 67 63 61 61 57 62 66 63 48 34 29 31 36 42 39 37
57 51 45 43 41 46 51 56 62 59 56 58 59 62 64 67 64 63 62 55 60 64 67 66 73 71 64 60 61 72 72 62 52 58 66 58 44 36 36 39 45 46 42
49 49 46 49 49 50 56 58 64 76 85 88 83 85 85 81 77 72 65 64 65 64 71 75 72 70 67 64 61 62 62 71 67 59 59 66 58 51 50 48 50 51 44
45 47 48 48 50 53 60 69 77 88 94 100 105 108 102 95 88 80 73 74 73 72 71 67 66 63 65 63 61 67 60 64 66 64 62 64 64 67 64 58 56 53 47
40 41 45 51 58 66 74 83 89 96 100 103 92 80 73 73 73 70 71 74 75 73 69 65 60 61 63 63 61 62 68 60 59 58 60 63 68 70 71 68 63 59 51
45 46 52 62 70 79 84 93 93 84 77 76 77 74 71 69 73 75 73 73 81 71 61 60 52 51 49 45 50 46 51 52 52 51 56 60 63 68 69 71 67 61 54
48 56 65 72 80 85 85 68 61 62 66 71 75 73 67 68 71 76 78 70 64 74 66 54 49 46 48 46 40 41 50 55 59 57 62 62 62 65 67 67 64 54 52
57 66 73 80 82 72 56 55 59 62 64 66 65 65 67 67 68 67 69 64 65 55 58 56 55 56 41 40 40 40 41 44 47 45 48 49 56 58 59 60 57 52 54
63 70 77 75 57 48 48 50 51 53 60 60 60 60 63 66 64 59 55 52 50 27 38 49 51 52 54 52 50 46 48 49 47 49 52 53 49 49 51 52 54 55 59
67 68 63 50 46 43 44 45 48 54 58 57 58 56 57 57 52 45 41 34 35 50 23 32 35 41 47 49 49 53 57 58 59 60 61 62 60 52 49 52 59 62 59
67 63 48 43 38 37 38 42 46 51 54 56 55 53 49 45 41 35 30 30 29 29 35 28 28 30 36 43 47 50 51 47 46 53 57 62 63 64 56 59 59 55 57
Wind_Direction_500mb
245 257 253 271 269 269 272 279 286 296 290 278 273 276 282 286 296 302 313 296 258 260 257 266 270 274 278 277 279 276 273 271 270 280 279 276 282 277 272 245 246 251 255
269 274 247 257 272 262 272 274 289 294 291 284 288 291 291 298 295 303 309 308 277 284 287 281 283 289 286 283 277 273 270 273 274 279 276 269 272 268 269 264 251 248 248
299 272 251 266 265 269 262 270 283 282 278 280 283 289 292 293 290 295 314 287 295 309 307 313 308 299 292 279 283 278 281 277 274 277 280 276 269 270 259 261 246 248 243
233 247 255 267 281 268 256 266 273 279 274 270 273 278 281 280 285 292 285 283 282 286 292 299 300 298 293 276 275 278 277 273 266 263 270 274 266 263 257 251 242 242 233
240 251 271 292 285 272 258 267 268 267 264 261 266 279 278 274 275 286 292 285 285 289 292 293 295 295 291 283 278 278 270 258 256 257 259 264 264 255 255 247 247 235 228
234 269 279 282 283 274 273 267 268 266 267 265 270 275 277 282 280 280 284 287 286 288 296 298 308 307 280 270 270 269 267 257 257 254 266 269 268 250 240 239 239 236 234
224 229 261 271 276 281 285 283 277 270 269 273 276 276 279 274 282 290 291 289 288 290 285 295 313 316 290 269 266 262 275 270 261 265 279 276 265 247 235 235 236 237 241
220 244 247 261 275 283 288 289 287 276 270 269 278 284 279 281 280 285 290 289 284 271 264 300 319 324 312 283 253 256 262 262 257 255 267 269 272 259 241 242 238 244 241
217 238 254 269 277 285 289 288 286 280 269 270 272 273 278 280 275 282 281 278 280 265 259 283 300 302 256 285 287 283 299 287 278 275 286 272 268 257 241 252 257 245 251
238 265 279 286 287 290 289 288 287 286 284 280 278 279 279 280 283 279 279 271 269 268 269 276 279 283 280 270 278 265 266 320 289 289 255 281 281 266 253 247 247 255 254
299 308 309 307 306 305 302 296 290 287 285 283 281 280 281 282 282 282 279 272 269 271 271 274 273 272 274 273 273 266 261 274 280 282 284 276 274 276 265 265 260 256 261
301 306 309 309 305 300 297 295 293 291 289 287 284 280 278 278 277 275 275 273 270 269 271 272 273 276 270 267 260 263 264 263 255 250 273 281 282 276 268 265 262 259 267
305 306 307 307 308 307 303 298 297 295 293 291 291 290 287 282 278 278 276 274 272 270 266 267 269 270 271 267 261 257 257 257 257 255 257 273 293 312 317 306 273 259 260
299 299 299 301 302 302 298 295 294 293 293 292 294 295 294 291 290 287 281 278 275 274 272 267 263 262 262 264 264 257 255 253 255 256 257 252 273 300 316 321 315 286 268
293 295 297 297 296 295 293 291 290 288 288 291 291 291 290 289 290 291 292 289 283 276 273 270 267 261 256 258 260 261 261 257 254 252 253 247 256 275 300 307 312 304 281
289 293 297 297 297 296 297 299 297 297 292 283 282 283 285 286 288 288 286 280 274 278 272 268 268 267 266 263 262 262 262 265 260 253 247 242 250 266 283 297 298 302 287
295 297 296 298 301 302 303 305 306 305 302 301 299 294 292 291 289 285 286 282 277 266 262 269 264 261 262 262 263 263 262 260 265 257 242 240 247 259 273 283 289 290 289
298 296 296 299 300 300 303 304 304 306 306 304 303 303 298 293 290 286 283 277 272 268 266 268 263 256 256 259 261 260 263 258 257 258 254 244 245 263 270 271 277 280 283
296 297 295 297 298 301 304 304 305 305 304 302 302 301 297 293 290 285 279 271 271 271 272 270 263 258 253 256 260 256 258 259 256 250 252 253 256 257 261 262 267 271 274
302 300 300 303 304 306 307 307 306 303 303 301 302 301 298 293 289 288 285 280 273 270 265 265 265 258 253 255 260 257 251 254 252 252 252 252 253 255 257 257 260 262 261
305 307 306 308 310 309 309 308 306 307 309 308 305 303 298 289 282 279 277 273 276 275 264 257 262 256 251 252 248 247 247 248 253 252 254 258 260 258 256 258 259 255 254
309 310 311 311 311 310 311 315 314 313 308 308 309 306 303 294 287 281 278 279 269 272 266 259 255 249 250 250 245 249 252 252 251 253 258 257 260 260 260 260 256 248 252
313 314 315 315 311 312 314 315 316 315 314 313 311 310 309 304 297 289 280 271 262 267 261 253 250 244 243 239 246 253 257 256 252 257 259 261 262 261 260 257 254 247 245
319 318 319 317 316 316 315 319 323 326 327 320 317 314 316 313 303 295 284 278 261 254 256 240 245 243 238 241 253 257 257 259 261 259 259 259 267 262 258 252 249 251 249
328 327 328 322 318 318 320 326 331 332 332 328 322 314 311 312 308 292 282 278 280 241 254 250 243 237 232 241 249 253 259 261 262 263 264 263 261 259 254 247 250 253 252
340 339 332 324 323 328 333 335 337 339 339 337 333 328 316 307 312 302 282 273 268 247 223 225 221 228 238 247 255 261 265 265 266 263 260 257 253 244 251 249 250 250 236
Wind_Speed_850mb
51 64 47 55 52 59 54 40 43 42 44 51 55 62 64 65 53 55 51 36 41 34 35 37 41 43 41 42 41 41 46 44 52 48 35 24 23 23 19 20 22 20 14
27 32 57 71 51 61 48 40 36 29 34 35 32 37 36 39 30 43 30 11 11 21 28 31 41 40 43 45 46 47 47 45 48 54 41 30 23 23 23 22 21 22 19
12 23 22 32 46 41 31 31 26 31 41 43 34 31 29 27 27 30 26 21 28 17 21 33 37 33 41 40 44 44 46 44 42 47 52 38 28 25 25 22 21 18 18
23 20 28 35 35 26 24 30 33 35 44 46 38 29 33 32 32 30 30 30 38 42 45 37 46 52 48 48 48 45 43 41 39 39 44 49 35 29 26 21 21 15 16
31 36 41 36 33 35 30 30 33 34 40 41 36 35 34 37 34 37 38 38 42 48 50 52 54 53 46 45 48 45 40 39 39 45 40 50 44 33 28 21 24 21 18
10 13 11 15 17 22 27 28 28 32 34 34 33 33 28 25 29 39 43 47 46 45 41 36 31 39 45 45 40 34 30 35 45 48 48 52 50 35 25 25 25 27 22
12 10 8 11 14 18 22 27 28 32 36 34 35 34 35 32 32 37 40 44 44 35 24 25 38 38 32 36 31 27 30 29 44 42 44 53 55 43 31 30 31 30 23
13 12 12 14 17 20 22 23 24 26 26 25 30 31 37 38 35 33 41 43 42 32 27 25 34 22 14 12 17 22 28 30 33 35 42 50 53 43 38 34 30 31 32
15 18 19 20 23 26 28 28 28 26 28 30 31 33 36 35 33 37 44 41 38 38 35 37 36 24 12 18 27 26 28 35 35 32 38 39 45 36 36 38 37 38 43
16 14 17 20 24 28 32 34 37 39 40 41 42 43 45 46 42 41 39 42 46 43 46 46 41 34 30 32 37 32 24 16 24 22 17 47 48 39 37 41 40 43 41
8 16 26 34 40 44 44 44 47 49 53 55 58 60 59 59 60 55 47 48 54 57 61 61 51 39 34 32 32 35 41 40 36 34 53 49 40 36 37 34 39 41 45
25 32 36 38 40 44 50 53 55 58 62 64 65 69 70 68 67 66 62 60 58 60 66 65 63 57 45 39 39 38 33 37 40 34 29 28 24 24 34 42 39 43 36
29 31 35 42 49 51 48 49 51 53 57 60 62 66 68 67 66 64 63 61 61 60 65 67 65 63 63 55 47 43 45 44 43 41 31 27 25 23 22 24 37 48 49
35 41 47 53 56 57 54 54 56 57 58 59 60 61 60 58 56 55 60 59 56 54 55 58 63 64 64 64 61 55 53 55 54 50 45 29 25 29 35 34 33 29 37
45 52 57 58 60 60 59 60 60 62 60 63 67 68 70 71 68 65 62 62 61 62 59 56 56 56 58 61 60 62 61 59 64 61 54 39 28 27 30 37 38 33 32
54 60 62 62 60 59 56 54 48 49 53 59 65 67 73 78 79 79 78 72 66 63 65 70 66 61 65 67 63 61 61 57 62 66 63 48 34 29 31 36 42 39 37
57 51 45 43 41 46 51 56 62 59 56 58 59 62 64 67 64 63 62 55 60 64 67 66 73 71 64 60 61 72 72 62 52 58 66 58 44 36 36 39 45 46 42
49 49 46 49 49 50 56 58 64 76 85 88 83 85 85 81 77 72 65 64 65 64 71 75 72 70 67 64 61 62 62 71 67 59 59 66 58 51 50 48 50 51 44
45 47 48 48 50 53 60 69 77 88 94 100 105 108 102 95 88 80 73 74 73 72 71 67 66 63 65 63 61 67 60 64 66 64 62 64 64 67 64 58 56 53 47
40 41 45 51 58 66 74 83 89 96 100 103 92 80 73 73 73 70 71 74 75 73 69 65 60 61 63 63 61 62 68 60 59 58 60 63 68 70 71 68 63 59 51
45 46 52 62 70 79 84 93 93 84 77 76 77 74 71 69 73 75 73 73 81 71 61 60 52 51 49 45 50 46 51 52 52 51 56 60 63 68 69 71 67 61 54
48 56 65 72 80 85 85 68 61 62 66 71 75 73 67 68 71 76 78 70 64 74 66 54 49 46 48 46 40 41 50 55 59 57 62 62 62 65 67 67 64 54 52
57 66 73 80 82 72 56 55 59 62 64 66 65 65 67 67 68 67 69 64 65 55 58 56 55 56 41 40 40 40 41 44 47 45 48 49 56 58 59 60 57 52 54
63 70 77 75 57 48 48 50 51 53 60 60 60 60 63 66 64 59 55 52 50 27 38 49 51 52 54 52 50 46 48 49 47 49 52 53 49 49 51 52 54 55 59
67 68 63 50 46 43 44 45 48 54 58 57 58 56 57 57 52 45 41 34 35 50 23 32 35 41 47 49 49 53 57 58 59 60 61 62 60 52 49 52 59 62 59
67 63 48 43 38 37 38 42 46 51 54 56 55 53 49 45 41 35 30 30 29 29 35 28 28 30 36 43 47 50 51 47 46 53 57 62 63 64 56 59 59 55 57
Wind_Direction_850mb
245 257 253 271 269 269 272 279 286 296 290 278 273 276 282 286 296 302 313 296 258 260 257 266 270 274 278 277 279 276 273 271 270 280 279 276 282 277 272 245 246 251 255
269 274 247 257 272 262 272 274 289 294 291 284 288 291 291 298 295 303 309 308 277 284 287 281 283 289 286 283 277 273 270 273 274 279 276 269 272 268 269 264 251 248 248
299 272 251 266 265 269 262 270 283 282 278 280 283 289 292 293 290 295 314 287 295 309 307 313 308 299 292 279 283 278 281 277 274 277 280 276 269 270 259 261 246 248 243
233 247 255 267 281 268 256 266 273 279 274 270 273 278 281 280 285 292 285 283 282 286 292 299 300 298 293 276 275 278 277 273 266 263 270 274 266 263 257 251 242 242 233
240 251 271 292 285 272 258 267 268 267 264 261 266 279 278 274 275 286 292 285 285 289 292 293 295 295 291 283 278 278 270 258 256 257 259 264 264 255 255 247 247 235 228
234 269 279 282 283 274 273 267 268 266 267 265 270 275 277 282 280 280 284 287 286 288 296 298 308 307 280 270 270 269 267 257 257 254 266 269 268 250 240 239 239 236 234
224 229 261 271 276 281 285 283 277 270 269 273 276 276 279 274 282 290 291 289 288 290 285 295 313 316 290 269 266 262 275 270 261 265 279 276 265 247 235 235 236 237 241
220 244 247 261 275 283 288 289 287 276 270 269 278 284 279 281 280 285 290 289 284 271 264 300 319 324 312 283 253 256 262 262 257 255 267 269 272 259 241 242 238 244 241
217 238 254 269 277 285 289 288 286 280 269 270 272 273 278 280 275 282 281 278 280 265 259 283 300 302 256 285 287 283 299 287 278 275 286 272 268 257 241 252 257 245 251
238 265 279 286 287 290 289 288 287 286 284 280 278 279 279 280 283 279 279 271 269 268 269 276 279 283 280 270 278 265 266 320 289 289 255 281 281 266 253 247 247 255 254
299 308 309 307 306 305 302 296 290 287 285 283 281 280 281 282 282 282 279 272 269 271 271 274 273 272 274 273 273 266 261 274 280 282 284 276 274 276 265 265 260 256 261
301 306 309 309 305 300 297 295 293 291 289 287 284 280 278 278 277 275 275 273 270 269 271 272 273 276 270 267 260 263 264 263 255 250 273 281 282 276 268 265 262 259 267
305 306 307 307 308 307 303 298 297 295 293 291 291 290 287 282 278 278 276 274 272 270 266 267 269 270 271 267 261 257 257 257 257 255 257 273 293 312 317 306 273 259 260
299 299 299 301 302 302 298 295 294 293 293 292 294 295 294 291 290 287 281 278 275 274 272 267 263 262 262 264 264 257 255 253 255 256 257 252 273 300 316 321 315 286 268
293 295 297 297 296 295 293 291 290 288 288 291 291 291 290 289 290 291 292 289 283 276 273 270 267 261 256 258 260 261 261 257 254 252 253 247 256 275 300 307 312 304 281
289 293 297 297 297 296 297 299 297 297 292 283 282 283 285 286 288 288 286 280 274 278 272 268 268 267 266 263 262 262 262 265 260 253 247 242 250 266 283 297 298 302 287
295 297 296 298 301 302 303 305 306 305 302 301 299 294 292 291 289 285 286 282 277 266 262 269 264 261 262 262 263 263 262 260 265 257 242 240 247 259 273 283 289 290 289
298 296 296 299 300 300 303 304 304 306 306 304 303 303 298 293 290 286 283 277 272 268 266 268 263 256 256 259 261 260 263 258 257 258 254 244 245 263 270 271 277 280 283
296 297 295 297 298 301 304 304 305 305 304 302 302 301 297 293 290 285 279 271 271 271 272 270 263 258 253 256 260 256 258 259 256 250 252 253 256 257 261 262 267 271 274
302 300 300 303 304 306 307 307 306 303 303 301 302 301 298 293 289 288 285 280 273 270 265 265 265 258 253 255 260 257 251 254 252 252 252 252 253 255 257 257 260 262 261
305 307 306 308 310 309 309 308 306 307 309 308 305 303 298 289 282 279 277 273 276 275 264 257 262 256 251 252 248 247 247 248 253 252 254 258 260 258 256 258 259 255 254
309 310 311 311 311 310 311 315 314 313 308 308 309 306 303 294 287 281 278 279 269 272 266 259 255 249 250 250 245 249 252 252 251 253 258 257 260 260 260 260 256 248 252
313 314 315 315 311 312 314 315 316 315 314 313 311 310 309 304 297 289 280 271 262 267 261 253 250 244 243 239 246 253 257 256 252 257 259 261 262 261 260 257 254 247 245
319 318 319 317 316 316 315 319 323 326 327 320 317 314 316 313 303 295 284 278 261 254 256 240 245 243 238 241 253 257 257 259 261 259 259 259 267 262 258 252 249 251 249
328 327 328 322 318 318 320 326 331 332 332 328 322 314 311 312 308 292 282 278 280 241 254 250 243 237 232 241 249 253 259 261 262 263 264 263 261 259 254 247 250 253 252
340 339 332 324 323 328 333 335 337 339 339 337 333 328 316 307 312 302 282 273 268 247 223 225 221 228 238 247 255 261 265 265 266 263 260 257 253 244 251 249 250 250 236